SCP
0 0 0 0 0 0 0 0 0 0 0 0 0 0 0 0 0 0 0 0 0 0 0 0 0 0 0 0 0 0 0 0 0 0 0 0 0 0 0 0 0 0 0 0
0 0 0 0 0 0 0 0 0 0 0 0 0 0 0 0 0 0 0 0 0 0 0 0 0 0 0 0 0 0 0 0 0 0 0 0 0 0 0 0 0 0 0 0
0 0 0 0 0 0 0 0 0 0 0 0 0 0 0 0 0 0 0 0 0 0 0 0 0 0 0 0 0 0 0 0 0 0 0 0 0 0 0 0 0 0 0 0
0 0 0 0 0 0 0 0 0 0 0 0 0 0 0 0 0 0 0 0 0 0 0 0 0 0 0 0 0 0 0 0 0 0 0 0 0 0 0 0 0 0 0 0
0 0 0 0 0 0 0 0 0 0 0 0 0 0 0 0 0 0 0 0 0 0 0 0 0 0 0 0 0 0 0 0 0 0 0 0 0 0 0 0 0 0 0 0
0 0 0 0 0 0 0 0 0 0 0 0 0 0 0 0 0 0 0 0 0 0 0 0 0 0 0 0 0 0 0 0 0 0 0 0 0 0 0 0 0 0 0 0
0 0 0 0 0 0 0 0 0 0 0 0 0 0 0 0 0 0 0 0 0 0 0 0 0 0 0 0 0 0 0 0 0 0 0 0 0 0 0 0 0 0 0 0
0 0 0 0 0 0 0 0 0 0 0 0 0 0 0 0 0 0 0 0 0 0 0 0 0 0 0 0 0 0 0 0 0 0 0 0 0 0 0 0 0 0 0 0
0 0 0 0 0 0 0 0 0 0 0 0 0 0 0 0 0 0 0 0 0 0 0 0 0 0 0 0 0 0 0 0 0 0 0 0 0 0 0 0 0 0 0 0
0 0 0 0 0 0 0 0 0 0 0 0 0 0 0 0 0 0 0 0 0 0 0 0 0 0 0 0 0 0 0 0 0 0 0 0 0 0 0 0 0 0 0 0
0 0 0 0 0 0 0 0 0 0 0 0 0 0 0 0 0 0 0 0 0 0 0 0 0 0 0 0 0 0 0 0 0 0 0 0 0 0 0 0 0 0 0 0
0 0 0 0 0 0 0 0 0 0 0 0 0 0 0 0 0 0 0 0 0 0 0 0 0 0 0 0 0 0 0 0 0 0 0 0 0 0 0 0 0 0 0 0
0 0 0 0 0 0 0 0 0 0 0 0 0 0 0 0 0 0 0 0 0 0 0 0 0 0 0 0 0 0 0 0 0 0 0 0 0 0 0 0 0 0 0 0
0 0 0 0 0 0 0 0 0 0 0 0 0 0 0 0 0 0 0 0 0 0 0 0 0 0 0 0 0 0 0 0 0 0 0 0 0 0 0 0 0 0 0 0
0 0 0 0 0 0 0 0 0 0 0 0 0 0 0 0 0 0 0 0 0 0 0 0 0 0 0 0 0 0 0 0 0 0 0 0 0 0 0 0 0 0 0 0
0 0 0 0 0 0 0 0 0 0 0 0 0 0 0 0 0 0 0 0 0 0 0 0 0 0 0 0 0 0 0 0 0 0 0 0 0 0 0 0 0 0 0 0
0 0 0 0 0 0 0 0 0 0 0 0 0 0 0 0 0 0 0 0 0 0 0 0 0 0 0 0 0 0 0 0 0 0 0 0 0 0 0 0 0 0 0 0
0 0 0 0 0 0 0 0 0 0 0 0 0 0 0 0 0 0 0 0 0 0 0 0 0 0 0 0 0 0 0 0 0 0 0 0 0 0 0 0 0 0 0 0
0 0 0 0 0 0 0 0 0 0 0 0 0 0 0 0 0 0 0 0 0 0 0 0 0 0 0 0 0 0 0 0 0 0 0 0 0 0 0 0 0 0 0 0
0 0 0 0 0 0 0 0 0 0 0 0 0 0 0 0 0 0 0 0 0 0 0 0 0 0 0 0 0 0 0 0 0 0 0 0 0 0 0 0 0 0 0 0
0 0 0 0 0 0 0 0 0 0 0 0 0 0 0 0 0 0 0 0 0 0 0 0 0 0 0 0 0 0 0 0 0 0 0 0 0 0 0 0 0 0 0 0
0 0 0 0 0 0 0 0 0 0 0 0 0 0 0 0 0 0 0 0 0 0 0 0 0 0 0 0 0 0 0 0 0 0 0 0 0 0 0 0 0 0 0 0
0 0 0 0 0 0 0 0 0 0 0 0 0 0 0 0 0 0 0 0 0 0 0 0 0 0 0 0 0 0 0 0 0 0 0 0 0 0 0 0 0 0 0 0
0 0 0 0 0 0 0 0 0 0 0 0 0 0 0 0 0 0 0 0 0 0 0 0 0 0 0 0 0 0 0 0 0 0 0 0 0 0 0 0 0 0 0 0
0 0 0 0 0 0 0 0 0 0 0 0 0 0 0 0 0 0 0 0 0 0 0 0 0 0 0 0 0 0 0 0 0 0 0 0 0 0 0 0 0 0 0 0
0 0 0 0 0 0 0 0 0 0 0 0 0 0 0 0 0 0 0 0 0 0 0 0 0 0 0 0 0 0 0 0 0 0 0 0 0 0 0 0 0 0 0 0
0 0 0 0 0 0 0 0 0 0 0 0 0 0 0 0 0 0 0 0 0 0 0 0 0 0 0 0 0 0 0 0 0 0 0 0 0 0 0 0 0 0 0 0
Wind_Speed
10 8 8 8 9 10 11 9 8 5 4 3 3 3 4 4 4 5 5 6 6 6 6 6 5 5 5 5 5 6 5 5 5 5 4 3 3 3 3 3 4 4 4 4
12 11 11 12 11 11 11 10 9 7 5 1 2 3 3 3 4 4 5 6 6 6 6 6 6 5 5 5 6 6 6 5 5 5 5 3 3 3 3 3 3 4 4 4
9 9 11 13 12 11 10 9 7 6 3 1 2 3 2 3 4 4 5 5 4 6 6 7 7 6 6 6 6 6 6 6 6 6 6 5 4 3 4 3 3 3 4 4
8 9 12 6 4 6 8 8 6 4 2 2 2 2 2 2 3 4 4 5 5 4 5 6 7 7 7 6 6 6 6 7 6 6 6 5 4 4 4 4 3 3 3 4
6 8 9 6 4 5 6 6 4 3 2 2 3 2 2 2 2 2 3 3 3 4 4 5 6 7 8 7 7 6 7 7 7 6 6 6 5 4 4 3 4 4 3 4
7 8 8 3 1 2 4 4 2 2 2 1 2 2 1 2 3 3 3 3 3 3 4 4 4 6 7 7 7 7 7 7 7 7 7 6 5 4 3 3 4 4 4 4
10 10 6 2 1 2 4 1 0 0 0 1 1 1 1 2 3 3 3 3 3 2 3 3 4 5 6 6 7 6 6 7 7 7 7 6 5 4 4 3 4 4 4 4
7 8 5 1 1 2 2 2 2 2 2 2 2 2 2 3 3 3 3 3 3 2 2 2 3 4 5 5 6 6 6 6 7 7 7 6 5 4 4 4 4 4 3 3
4 3 0 1 2 3 4 4 4 3 3 2 1 1 2 2 2 2 3 3 3 3 2 2 2 3 4 3 5 6 6 6 6 7 6 6 6 5 4 4 4 3 3 3
5 3 2 1 2 3 3 5 5 4 3 2 0 1 1 1 1 2 2 3 3 3 2 2 2 2 2 3 5 6 6 5 5 6 6 5 5 4 4 4 4 4 3 3
6 5 3 3 3 4 3 3 4 3 3 3 1 1 1 1 2 2 1 2 3 3 3 3 3 3 3 3 4 5 6 6 5 5 5 5 4 3 4 3 4 5 4 4
6 5 5 5 5 4 4 4 3 4 4 3 2 2 1 1 1 2 2 2 2 2 3 3 3 3 4 3 5 5 5 5 5 4 5 5 4 3 2 2 4 5 4 4
7 6 6 7 6 4 4 5 5 4 4 3 2 1 1 1 2 2 2 3 3 3 2 3 3 3 3 3 4 5 5 5 4 5 5 5 5 5 3 1 2 3 4 5
6 5 6 6 6 4 5 6 5 5 4 3 2 1 1 1 2 2 2 3 2 2 3 3 3 3 3 3 3 4 5 5 5 4 4 4 5 5 5 5 3 2 3 5
7 6 6 6 6 5 4 5 5 4 4 3 2 2 2 2 2 2 2 2 2 2 2 3 3 3 3 3 3 4 4 4 4 4 4 4 4 4 4 5 4 4 3 3
7 6 6 6 6 5 5 5 5 4 3 2 2 2 2 2 2 2 2 3 3 2 2 3 3 3 4 3 3 3 3 5 5 4 4 4 4 4 4 4 4 4 4 4
7 6 6 6 6 6 5 5 5 4 3 2 2 2 1 2 2 2 2 2 2 2 2 2 2 3 4 4 3 2 3 4 5 4 4 4 4 4 4 4 4 4 4 5
7 7 7 7 6 6 6 5 5 4 3 3 3 2 2 2 2 2 2 2 2 1 2 2 2 2 3 4 3 3 3 3 3 3 3 3 3 3 4 4 4 4 3 4
7 7 7 7 6 5 5 4 4 4 3 3 3 3 2 2 2 2 2 2 2 2 2 2 3 2 2 3 3 2 3 3 3 3 3 4 3 3 3 3 3 3 3 4
7 7 7 6 6 5 5 3 3 3 3 3 3 2 2 2 2 2 2 2 2 2 2 3 3 2 2 3 3 2 3 3 3 3 3 3 3 3 3 3 3 3 3 3
6 6 6 5 5 4 4 3 3 3 3 3 3 3 3 2 2 2 2 1 1 2 2 3 2 2 2 2 3 2 3 3 3 2 3 3 3 3 3 3 3 3 3 3
5 5 5 4 3 3 3 2 2 2 2 2 2 2 2 2 2 2 1 1 2 3 2 2 2 2 2 3 2 2 3 3 3 2 2 2 2 2 2 2 2 2 2 2
4 4 4 3 3 3 2 2 2 2 1 2 2 2 2 1 2 2 2 1 2 3 2 2 2 3 4 3 2 2 2 3 2 2 2 2 2 2 2 2 2 2 2 2
4 4 3 2 2 2 2 2 2 1 1 1 1 1 1 1 1 1 1 3 3 3 2 3 5 5 4 2 2 3 3 3 2 2 2 2 2 2 2 2 2 2 2 2
4 4 2 1 1 1 1 1 1 1 1 1 1 1 0 0 1 1 1 3 4 3 2 4 6 5 3 2 3 3 2 2 2 3 2 2 2 2 2 2 2 1 1 1
4 3 2 1 0 1 1 1 1 1 1 1 0 0 0 1 1 1 2 3 3 3 2 3 3 4 3 3 3 3 3 3 3 3 3 2 2 2 2 2 2 2 1 1
4 2 1 0 1 0 0 1 1 1 1 1 1 0 0 1 1 2 2 2 3 3 2 2 3 2 2 3 3 3 3 3 3 3 3 2 2 2 2 3 2 2 2 2
Wind_Direction
260 260 262 254 247 244 242 246 256 259 249 223 158 143 143 145 150 149 154 157 161 161 162 162 169 172 170 167 162 161 158 157 156 142 132 130 137 142 132 131 129 127 128 124
260 253 255 254 244 241 244 243 250 256 259 230 150 131 131 150 155 160 166 167 170 168 165 167 172 170 167 164 164 163 165 157 142 137 131 130 138 141 129 122 120 120 121 120
268 258 257 250 237 232 237 238 244 248 251 142 143 125 151 181 176 171 168 163 169 172 174 177 178 171 166 166 166 165 158 148 146 146 143 149 158 142 138 141 138 131 129 121
268 261 248 245 224 220 232 239 242 234 220 191 166 156 163 168 176 172 164 163 169 173 178 178 174 170 167 164 164 164 160 157 156 155 153 155 159 152 150 154 155 146 142 135
258 262 262 249 234 227 234 239 240 234 207 220 178 169 157 133 125 139 146 151 159 169 174 174 175 172 168 167 169 170 166 162 159 156 153 157 163 161 161 156 151 151 150 142
250 255 252 254 282 271 258 239 254 227 204 191 189 213 180 100 105 110 117 122 132 157 167 170 174 167 169 173 173 177 171 165 160 159 157 165 169 164 157 150 154 155 155 154
244 253 257 291 315 270 229 227 33 236 205 202 198 132 99 96 97 102 109 118 126 139 149 158 164 166 177 177 180 176 163 159 156 159 161 163 160 160 151 151 152 156 156 162
237 243 242 56 233 261 324 5 24 357 3 30 74 95 98 101 103 113 122 128 129 127 127 145 157 169 177 178 172 158 153 157 158 158 162 160 156 159 160 161 159 164 162 165
245 247 351 20 342 333 349 345 352 356 10 47 53 115 115 121 123 134 139 144 138 135 139 144 156 167 171 162 151 147 151 157 159 157 157 155 157 161 167 166 165 173 173 174
259 257 270 304 293 302 337 332 334 342 353 353 255 148 146 158 144 135 139 141 143 150 152 152 159 168 164 146 151 151 154 155 155 156 154 154 156 165 172 175 175 179 179 183
277 274 284 294 296 312 321 322 320 326 324 313 297 252 211 184 154 140 140 145 155 165 168 170 162 164 153 152 154 157 160 162 164 156 153 150 148 160 170 178 183 181 185 179
269 285 294 293 303 312 314 308 304 304 302 304 289 273 229 187 151 152 161 153 163 172 174 173 164 163 159 158 162 168 172 167 162 155 153 153 150 137 112 146 157 166 170 170
283 292 298 299 305 309 307 302 292 284 281 281 283 266 240 180 164 163 168 165 173 177 179 166 161 162 158 161 169 176 173 163 160 161 162 164 163 164 161 126 118 162 173 174
286 281 281 287 292 296 293 293 288 279 276 264 253 242 222 176 163 168 175 163 166 180 178 163 166 172 167 173 174 176 169 168 164 163 164 168 171 172 172 172 178 194 194 192
279 273 267 276 279 276 276 280 278 269 265 247 225 222 205 185 176 179 161 147 162 193 187 170 173 173 163 175 180 177 167 164 163 158 162 168 171 174 179 183 183 182 173 187
276 270 261 265 266 266 266 265 267 265 262 257 248 223 208 178 163 160 159 161 176 195 192 179 178 171 162 166 166 170 170 167 165 164 168 173 177 181 185 184 185 186 187 185
267 264 262 270 269 269 269 268 267 263 255 258 261 247 220 177 168 175 175 172 182 187 178 174 173 167 166 166 165 164 159 167 175 174 179 181 182 187 185 179 182 187 190 183
269 273 271 268 266 265 266 267 267 263 253 254 260 250 222 192 190 186 182 171 167 169 168 162 162 174 174 171 170 170 170 175 178 182 180 182 185 186 182 181 185 185 178 176
265 266 269 272 274 273 270 267 266 265 256 246 245 238 215 199 194 184 175 171 180 191 187 157 170 183 183 172 165 170 174 177 180 180 175 181 187 188 184 184 181 173 169 169
270 267 267 268 267 268 270 266 258 262 254 244 242 236 224 210 195 187 181 184 195 194 169 155 171 187 180 166 168 178 177 177 177 176 172 174 179 182 181 177 171 167 170 172
283 274 268 265 264 265 266 262 252 252 244 230 228 229 220 207 195 187 173 181 185 151 159 166 171 171 165 163 178 180 172 168 169 174 178 176 177 178 178 178 174 175 178 174
278 276 267 267 270 268 260 250 244 257 258 240 239 235 214 197 186 172 166 190 162 144 156 166 162 163 165 170 185 173 166 163 165 171 175 172 173 177 179 176 173 175 170 167
279 276 265 254 254 254 247 234 225 233 230 238 241 231 205 189 188 177 186 180 158 163 163 167 153 145 156 168 173 160 155 154 158 164 162 164 169 172 171 169 165 158 156 161
302 304 289 269 248 234 228 226 219 211 196 219 237 230 198 192 216 205 159 154 160 166 165 160 155 163 171 171 158 158 157 156 159 159 156 161 166 168 162 155 154 154 153 156
313 303 292 268 252 244 226 210 194 188 187 191 191 199 184 185 180 167 152 152 151 146 149 164 165 169 175 163 159 161 160 162 158 154 157 160 160 156 148 145 148 148 150 155
318 307 280 251 266 265 223 194 191 187 188 195 194 147 111 132 141 150 148 150 152 152 159 167 172 177 179 164 163 162 160 163 164 161 160 157 155 152 151 151 148 143 146 147
330 321 315 11 342 297 244 197 174 170 196 202 195 198 195 168 150 148 149 154 158 164 169 174 178 182 168 159 162 169 172 166 158 153 156 159 160 160 158 154 151 149 151 154